Wind_Speed
8 8 7 7 7 6 5 4 5 5 5 5 5 5 5 6 6 6 6 7 7 7 7 7 7 8 8 8 8 8 8 8 9 9 9 9 9 9 9 9 9 9 9
8 7 7 6 7 6 6 6 6 5 5 5 6 6 6 6 7 7 7 8 8 8 8 9 8 9 9 9 9 9 9 10 11 11 11 10 10 10 10 10 10 10 11
9 7 7 7 7 7 7 7 7 7 7 7 7 7 7 8 8 8 9 9 9 9 10 10 9 9 9 8 9 9 10 11 10 10 11 11 11 11 11 11 11 11 11
9 7 8 8 8 8 8 8 8 8 9 9 9 9 9 9 9 9 10 10 10 10 10 10 9 9 9 9 10 10 10 10 10 11 11 11 11 11 11 12 13 13 13
9 9 8 9 9 8 9 9 9 9 10 10 10 10 10 10 10 11 11 11 11 11 11 10 10 10 10 10 10 10 11 11 11 12 12 12 12 12 13 13 14 15 15
11 11 10 9 9 9 9 9 10 10 10 11 11 12 12 12 12 12 13 13 13 12 12 13 12 11 11 11 11 11 11 11 12 12 13 12 12 13 14 14 15 16 16
11 11 11 11 10 10 11 10 10 11 11 12 12 13 13 13 13 13 14 14 14 14 13 15 14 13 13 12 12 12 13 13 13 13 14 14 14 15 15 15 15 16 17
12 12 12 12 12 12 12 12 12 12 12 13 13 13 15 15 14 15 15 15 15 15 15 16 16 15 14 13 13 13 13 14 14 14 15 15 16 17 17 17 17 17 18
12 13 13 13 13 13 13 13 14 14 14 14 14 14 15 15 15 15 15 16 16 16 17 17 16 15 15 14 14 14 15 15 15 16 16 17 17 18 19 19 19 19 19
15 15 14 15 15 15 15 15 16 16 16 16 15 15 17 17 17 17 17 17 17 17 17 17 16 15 15 15 16 16 16 17 17 18 18 18 19 19 20 21 21 21 21
18 17 16 16 17 17 17 17 17 17 17 18 18 18 18 18 19 18 18 18 18 19 19 18 18 17 18 17 18 18 18 18 18 19 20 21 21 21 22 23 23 23 23
19 20 20 19 19 19 19 19 19 19 19 19 19 19 20 20 19 19 19 19 19 20 20 20 19 19 19 19 19 20 20 20 21 21 22 22 23 23 24 25 25 25 25
20 21 22 21 20 20 20 20 21 21 21 21 20 21 21 21 21 21 21 21 20 20 20 20 20 20 20 20 20 21 21 22 23 23 24 24 24 25 26 27 27 27 27
22 23 23 22 21 22 22 22 22 22 22 22 21 21 22 23 22 22 22 22 21 21 21 21 21 21 22 22 22 22 23 24 25 26 26 26 27 27 28 29 29 29 29
24 24 24 23 22 22 23 23 23 23 23 23 23 23 23 23 23 23 23 23 23 23 22 22 22 22 22 23 24 24 26 27 27 28 28 28 28 28 29 29 30 30 30
24 24 24 23 23 22 23 24 24 25 25 24 24 24 24 24 25 25 24 25 24 24 24 25 25 25 25 25 25 26 27 28 29 29 29 29 29 30 30 30 30 31 31
25 25 25 24 24 24 25 25 26 26 26 26 25 26 26 26 26 26 27 26 26 26 26 27 28 28 27 28 28 28 29 29 30 30 31 32 32 31 31 31 31 31 32
26 25 25 25 25 25 26 26 26 27 27 27 27 27 27 27 28 27 27 28 28 28 28 29 30 30 30 31 31 30 30 30 31 32 32 33 33 32 32 33 32 32 32
27 27 26 27 26 26 27 27 27 27 28 28 28 29 29 30 30 30 30 30 30 30 31 31 32 32 32 33 32 32 32 32 33 33 33 34 34 34 34 34 34 34 34
29 29 29 28 28 29 29 28 28 28 28 29 29 30 31 31 31 32 32 33 33 32 32 32 33 33 33 33 33 33 34 35 34 34 34 35 35 35 35 35 35 34 33
29 29 30 30 30 30 29 28 29 29 30 30 30 31 32 32 33 33 34 34 34 34 34 33 33 34 33 34 35 36 37 37 36 35 34 35 35 35 35 35 34 34 33
30 30 30 30 31 31 31 31 30 31 31 31 32 32 32 33 34 34 34 34 34 34 34 34 34 34 34 35 35 37 37 36 35 35 34 35 35 34 34 33 33 33 32
32 32 31 31 32 32 32 32 31 31 32 32 32 33 33 33 33 33 34 34 35 35 35 35 35 35 35 34 35 36 36 35 35 35 34 34 35 34 34 33 33 32 31
33 33 32 32 32 32 32 32 32 32 32 32 32 32 32 33 33 33 35 35 36 35 35 35 35 35 35 35 35 35 35 35 35 36 35 34 34 34 33 33 32 32 32
33 34 34 33 33 33 33 33 33 32 32 32 32 33 33 33 34 34 35 35 36 36 35 35 35 35 34 34 34 34 34 34 35 35 34 34 33 33 32 32 32 32 32
34 34 34 34 34 33 33 33 33 33 33 33 33 34 34 34 35 35 35 35 35 35 35 36 36 36 35 35 35 34 34 34 33 33 33 33 32 32 32 32 32 32 31
Wind_Direction
340 338 338 340 341 344 346 344 336 333 331 334 334 317 324 329 329 329 327 324 322 321 318 321 320 321 320 311 304 303 294 292 293 289 284 279 279 283 286 288 287 290 291
331 335 336 336 333 336 330 329 324 321 323 324 326 324 319 321 324 325 322 317 313 311 309 313 313 316 318 312 301 296 294 295 291 288 283 281 280 283 285 290 291 290 291
325 333 336 330 328 328 326 322 320 318 314 314 316 319 318 315 317 319 319 315 309 304 301 302 307 311 315 313 305 301 300 300 297 290 288 288 284 289 286 288 291 289 288
328 330 334 328 325 324 326 321 318 312 313 315 315 315 315 313 312 314 315 314 309 302 298 299 305 308 311 309 303 300 303 305 302 296 294 292 291 290 289 291 292 294 293
318 321 322 322 319 320 323 320 315 308 307 310 309 307 308 308 310 313 313 313 309 305 301 299 301 303 308 308 304 300 301 302 304 304 304 300 296 296 295 296 295 292 293
310 312 312 315 315 313 314 316 313 308 308 309 308 307 306 308 307 310 309 309 311 308 304 300 295 299 304 305 305 304 303 301 302 301 302 302 300 300 301 301 300 297 293
302 305 304 306 310 310 313 316 313 313 306 304 303 305 305 307 308 309 310 310 311 311 308 306 301 299 302 301 302 300 298 296 298 299 300 298 297 299 301 302 303 301 298
297 301 302 307 309 308 308 308 309 310 306 301 300 301 303 304 306 308 309 310 306 305 305 303 301 300 298 296 296 298 297 296 295 297 299 299 298 297 298 300 302 301 300
291 295 301 303 301 302 303 302 304 305 304 302 303 303 303 301 302 304 308 311 310 308 306 302 300 298 297 294 292 294 297 294 294 296 296 295 297 297 298 300 299 298 297
293 295 294 293 294 295 297 296 296 299 298 297 296 299 301 301 301 303 304 304 306 308 308 304 299 296 296 295 292 292 296 295 296 298 297 295 294 294 295 297 296 296 295
290 290 291 293 292 291 291 292 293 295 297 297 297 298 300 301 301 300 301 301 301 303 304 302 298 296 296 294 291 292 295 296 298 299 297 295 295 296 297 295 295 294 294
288 287 286 287 288 289 289 289 290 291 292 293 294 297 297 298 299 297 298 300 300 299 299 300 299 297 296 296 294 291 292 294 297 297 296 295 293 294 296 294 293 292 292
286 285 284 284 285 285 286 287 289 290 290 291 293 293 294 296 297 296 297 297 297 297 297 297 299 298 297 296 295 294 293 293 294 295 296 296 294 293 294 294 292 290 292
284 282 281 280 281 284 286 288 288 288 290 290 291 292 294 295 296 295 295 295 295 294 295 294 295 295 294 294 294 295 295 295 295 296 297 297 295 296 294 293 293 291 291
280 282 282 280 280 284 286 287 287 288 289 290 291 293 293 294 294 293 293 293 293 293 293 292 292 293 293 293 293 293 293 294 296 296 297 298 298 296 295 295 296 293 291
279 282 282 282 282 283 285 286 286 285 286 287 289 290 292 292 292 291 291 292 292 293 292 292 293 294 294 294 294 293 294 294 295 296 296 297 297 297 296 297 296 295 293
279 279 279 281 283 283 283 283 283 282 282 284 285 288 290 291 291 293 292 291 292 292 292 292 293 294 295 294 293 292 294 294 294 295 295 295 295 296 295 295 294 293 293
278 277 279 280 282 283 282 283 283 282 281 281 283 285 287 288 289 291 292 291 291 292 292 292 292 293 293 293 292 291 293 294 294 294 294 295 294 294 294 294 293 293 292
276 276 277 279 280 280 280 281 282 283 283 283 282 283 285 286 287 289 291 290 290 290 290 291 291 292 293 293 292 292 294 294 294 294 294 295 294 293 294 293 291 291 292
275 275 277 278 279 279 279 280 281 282 283 283 282 283 284 285 286 287 289 289 289 290 290 291 291 291 291 291 292 293 295 294 293 293 294 294 294 293 293 292 292 291 291
273 274 277 278 278 278 280 280 281 283 283 282 282 282 282 283 284 286 287 287 288 289 289 290 291 291 291 291 292 294 295 294 293 293 293 293 294 294 294 293 293 292 291
272 273 275 277 277 279 279 281 281 281 282 282 282 282 282 282 283 283 284 285 287 288 289 290 290 291 293 293 293 294 294 294 293 293 292 292 292 292 293 293 293 293 291
272 273 274 276 277 278 279 280 281 281 282 282 281 281 281 282 283 282 283 283 286 286 287 288 289 291 292 293 293 293 295 294 293 293 293 291 291 291 292 292 294 293 292
273 274 275 276 277 278 279 281 282 283 282 282 282 281 280 282 283 283 283 285 286 287 287 288 290 292 293 294 293 293 292 292 292 292 292 290 290 291 292 292 293 293 293
273 274 275 276 277 278 279 279 280 280 280 280 281 282 281 281 282 283 283 284 285 285 286 288 291 293 293 294 294 293 291 291 292 292 292 290 290 290 292 292 292 293 293
275 275 275 276 276 277 277 278 278 278 278 279 280 281 280 280 282 283 283 283 283 285 286 288 289 291 293 294 293 292 292 293 294 294 292 291 290 291 292 292 292 292 292
Height
5908 5907 5906 5905 5905 5904 5904 5903 5903 5903 5903 5903 5902 5902 5901 5901 5901 5900 5899 5899 5898 5898 5897 5896 5896 5895 5894 5893 5893 5893 5892 5892 5892 5892 5892 5892 5891 5891 5891 5890 5890 5889 5889
5907 5906 5906 5905 5905 5904 5904 5904 5903 5903 5903 5902 5902 5901 5901 5900 5900 5899 5899 5898 5897 5897 5896 5895 5894 5894 5893 5892 5891 5891 5890 5890 5890 5890 5889 5889 5889 5887 5888 5888 5887 5887 5887
5907 5906 5905 5905 5904 5904 5903 5903 5903 5902 5902 5901 5901 5901 5900 5900 5899 5898 5898 5897 5896 5895 5894 5894 5893 5892 5891 5890 5889 5889 5888 5888 5887 5887 5887 5886 5886 5886 5885 5885 5885 5884 5883
5906 5904 5904 5904 5904 5903 5902 5902 5902 5901 5901 5900 5900 5900 5899 5898 5898 5897 5896 5895 5894 5893 5892 5891 5891 5890 5889 5888 5887 5887 5886 5886 5885 5885 5883 5883 5882 5882 5882 5882 5881 5881 5880
5905 5904 5903 5903 5902 5902 5901 5901 5900 5900 5899 5899 5899 5898 5898 5897 5896 5895 5894 5893 5892 5891 5890 5889 5888 5888 5887 5886 5886 5885 5884 5883 5883 5882 5881 5880 5879 5879 5879 5879 5878 5878 5877
5904 5903 5902 5902 5901 5900 5900 5900 5899 5897 5897 5897 5897 5896 5896 5895 5894 5893 5893 5891 5890 5889 5888 5887 5886 5886 5885 5884 5883 5883 5882 5881 5880 5880 5879 5878 5877 5877 5876 5875 5875 5874 5873
5903 5902 5901 5900 5899 5899 5898 5898 5898 5897 5896 5895 5895 5894 5893 5893 5892 5891 5890 5889 5888 5887 5886 5885 5884 5883 5882 5882 5881 5880 5879 5878 5878 5877 5876 5875 5874 5874 5873 5872 5871 5870 5869
5901 5900 5899 5898 5898 5897 5897 5896 5896 5895 5894 5893 5893 5892 5891 5890 5889 5889 5888 5886 5885 5884 5883 5882 5881 5880 5880 5879 5878 5877 5876 5875 5875 5874 5873 5872 5871 5870 5869 5868 5867 5866 5865
5898 5899 5898 5897 5896 5895 5895 5894 5893 5893 5892 5891 5890 5889 5888 5887 5886 5886 5885 5883 5882 5881 5880 5878 5878 5877 5876 5875 5874 5874 5873 5872 5871 5870 5869 5868 5867 5866 5865 5864 5863 5862 5861
5896 5896 5895 5895 5894 5893 5892 5892 5891 5890 5889 5888 5887 5886 5885 5884 5883 5882 5882 5880 5879 5877 5876 5875 5874 5873 5872 5872 5871 5870 5869 5868 5867 5866 5865 5863 5862 5861 5860 5859 5858 5857 5856
5894 5893 5893 5892 5891 5890 5889 5888 5887 5886 5885 5884 5883 5882 5881 5881 5880 5879 5878 5877 5875 5874 5873 5871 5870 5869 5869 5867 5867 5866 5865 5864 5862 5861 5860 5859 5857 5856 5855 5853 5852 5851 5850
5891 5890 5889 5888 5887 5886 5885 5884 5883 5883 5882 5880 5879 5878 5877 5876 5875 5875 5874 5873 5871 5870 5869 5867 5866 5865 5864 5863 5862 5861 5860 5859 5857 5856 5855 5853 5852 5851 5849 5847 5846 5844 5843
5886 5885 5884 5883 5882 5881 5881 5880 5879 5878 5877 5876 5875 5874 5873 5871 5871 5870 5869 5868 5867 5865 5864 5863 5862 5861 5859 5858 5857 5856 5854 5853 5852 5850 5849 5847 5846 5845 5843 5841 5839 5838 5836
5881 5880 5879 5878 5878 5877 5876 5875 5874 5873 5872 5871 5870 5869 5868 5867 5866 5865 5864 5863 5862 5861 5859 5858 5857 5856 5854 5853 5852 5850 5849 5848 5846 5844 5843 5841 5839 5838 5836 5834 5832 5830 5829
5876 5875 5874 5873 5872 5872 5871 5870 5869 5868 5867 5866 5865 5864 5863 5862 5861 5860 5859 5858 5857 5856 5854 5853 5851 5850 5849 5847 5846 5844 5843 5841 5839 5838 5836 5834 5832 5830 5828 5827 5825 5823 5821
5870 5869 5869 5868 5867 5866 5866 5865 5863 5862 5861 5860 5860 5859 5858 5856 5855 5854 5853 5852 5851 5850 5849 5847 5846 5844 5843 5841 5839 5837 5835 5834 5832 5830 5828 5826 5825 5823 5821 5819 5817 5815 5813
5863 5863 5862 5861 5860 5860 5859 5858 5857 5856 5855 5854 5854 5853 5852 5850 5849 5848 5847 5846 5844 5843 5842 5841 5839 5837 5836 5834 5832 5830 5828 5826 5825 5823 5821 5819 5817 5815 5813 5811 5809 5807 5805
5856 5856 5855 5854 5854 5853 5852 5851 5850 5849 5848 5848 5847 5846 5845 5844 5843 5841 5840 5839 5837 5836 5835 5833 5832 5830 5828 5826 5824 5822 5820 5819 5817 5815 5813 5811 5808 5806 5804 5802 5800 5798 5797
5849 5849 5848 5848 5847 5846 5845 5844 5843 5842 5841 5840 5839 5839 5838 5837 5835 5834 5833 5831 5830 5829 5827 5825 5824 5822 5820 5818 5816 5814 5812 5810 5808 5806 5804 5802 5800 5798 5796 5793 5792 5790 5788
5842 5841 5841 5840 5839 5838 5837 5836 5836 5835 5834 5833 5832 5831 5830 5829 5828 5827 5825 5824 5822 5820 5819 5817 5815 5813 5811 5810 5808 5806 5804 5802 5799 5797 5795 5793 5791 5788 5786 5784 5782 5780 5779
5833 5833 5832 5832 5831 5830 5828 5827 5827 5827 5826 5825 5824 5823 5822 5821 5820 5818 5817 5815 5813 5812 5810 5808 5806 5804 5802 5801 5799 5797 5794 5792 5790 5788 5786 5784 5781 5779 5776 5774 5772 5770 5769
5825 5824 5824 5823 5823 5822 5820 5819 5818 5818 5817 5816 5815 5814 5813 5812 5810 5809 5808 5806 5804 5803 5800 5799 5797 5795 5793 5792 5789 5787 5785 5782 5780 5779 5777 5775 5772 5770 5767 5765 5763 5761 5759
5816 5816 5815 5815 5814 5813 5812 5811 5811 5809 5808 5807 5806 5805 5803 5802 5801 5799 5798 5797 5795 5793 5791 5789 5788 5786 5784 5782 5780 5777 5775 5772 5770 5769 5767 5765 5763 5761 5759 5756 5754 5752 5749
5807 5807 5806 5806 5805 5804 5803 5802 5801 5800 5799 5798 5796 5795 5794 5793 5791 5790 5789 5787 5786 5784 5782 5780 5778 5777 5774 5772 5770 5767 5765 5763 5761 5759 5757 5755 5753 5751 5749 5747 5745 5742 5740
5798 5797 5797 5796 5796 5795 5794 5793 5792 5791 5790 5788 5787 5786 5785 5783 5782 5781 5779 5778 5777 5775 5773 5771 5769 5767 5765 5762 5760 5757 5755 5753 5751 5749 5747 5745 5743 5742 5740 5738 5735 5733 5731
5787 5787 5787 5786 5786 5785 5784 5783 5782 5781 5780 5779 5777 5776 5775 5774 5772 5771 5769 5768 5767 5765 5763 5762 5760 5757 5755 5753 5750 5747 5745 5743 5741 5739 5737 5735 5734 5732 5730 5728 5725 5723 5721